Alba, MO (64830)

2:12 AM CDT on May 27, 2015 (GMT -0500)
Country Side Estates | | Change Station
CLOSE
Current Station
Personal Weather Station
Location: Webb City, MO
Elevation: 968 ft
Nearby Weather Stations

Elev 968 ft 37.16 °N, 94.48 °W | Updated 7 minutes ago

Thunderstorm
Thunderstorm
67.1 °F
Feels Like 67.1 °F
N
0.0
Wind Variable Wind from SSE

Today
High -- | Low -- °F
--% Chance of Precip.
Yesterday
High -- | Low -- °F
Precip. -- in
6:01 AM 8:28 PM
Waxing Gibbous, 65% visible
Pressure 29.96 in
Visibility 10.0 miles
Clouds Few 1700 ft
Mostly Cloudy 3500 ft
Mostly Cloudy 4600 ft
Dew Point 66 °F
Humidity 95%
Rainfall 0.00 in
Snow Depth Not available.
UV 0 out of 12
Pollen 7.80 out of 12
Air Quality Not available.
Flu Activity Sporadic
METAR KJLN 270653Z AUTO 31003KT 10SM FEW017 BKN035 BKN046 19/18 A2998 RMK AO2 LTG DSNT E-SW SLP143 T01940183

More Conditions Fewer Conditions

Pressure 29.96 in
Visibility 10.0 miles
Clouds Few 1700 ft
Mostly Cloudy 3500 ft
Mostly Cloudy 4600 ft
Dew Point 66 °F
Humidity 95%
Rainfall 0.00 in
Snow Depth Not available.
UV 0 out of 12
Pollen 7.80 out of 12
Air Quality Not available.
Flu Activity Sporadic
METAR KJLN 270653Z AUTO 31003KT 10SM FEW017 BKN035 BKN046 19/18 A2998 RMK AO2 LTG DSNT E-SW SLP143 T01940183

More Conditions Fewer Conditions

10-Day Weather Forecast

Almanac

Astronomy

May. 27, 2015 Rise Set
Actual Time
Civil Twilight
Nautical Twilight
Astronomical Twilight
Moon
Length of Visible Light
Length of Day
Tomorrow will be .
, % of the Moon is Illuminated

Today's Extremes

State Highs State Lows

Community

WunderPhotos

Upload Photos

1,824,632 photos uploaded!

WunderBlogs® & News

Nearby

Air Quality

  Air Quality AQ Index Pollutant
Not available.

Snow Depth

Station Depth Elevation

Earthquake Activity

City Distance Mag. Time & Date
Minimum magnitude displayed is 2.5.

Coastal Water Temperatures

Place Temperature

Stations

Nearby Weather Stations

Station Location Temp. Windchill Dew Point Humidity Wind Precip. Elev Updated Type